Sterling, IL

11:59 AM CST on November 15, 2019 (GMT -0600)
Whiteside County-Bittorf

Weather History for KSQI - September, 2019

Change the Weather History Date:

Thursday, September 26, 2019

  Actual Average Record
Temperature  
Mean Temperature 62 °F -  
Max Temperature 73 °F 69 °F 89 °F (1998)
Min Temperature 51 °F 45 °F 33 °F (2000)
Degree Days  
Heating Degree Days 3    
Growing Degree Days 12 (Base 50)    
Moisture  
Dew Point 49 °F    
Average Humidity 65    
Maximum Humidity 96    
Minimum Humidity 37    
Precipitation  
Precipitation 0.00 in - - ()
Sea Level Pressure  
Sea Level Pressure 29.55 in    
Wind  
Wind Speed 7 mph ()    
Max Wind Speed 14 mph    
Max Gust Speed 24 mph    
Visibility 10.0 miles    
Events      
Averages and records for this station are not official NWS values.
T = Trace of Precipitation, MM = Missing Value Source: Averaged Metar Reports

Daily Weather History Graph

Daily Weather History Graph

Search for Another Location

Airport or City:

Astronomy

Sep. 26, 2019 Rise Set
Actual Time 6:50 AM CDT 6:49 PM CDT
Civil Twilight 6:22 AM CDT 7:17 PM CDT
Nautical Twilight 5:49 AM CDT 7:49 PM CDT
Astronomical Twilight 5:17 AM CDT 8:22 PM CDT
Moon 3:53 AM CDT (9/26) 6:05 PM CDT (9/26)
Length of Visible Light 12h 54m
Length of Day
11h 59m
Waning Crescent, 6% of the Moon is Illuminated
Sep 26
Waning Crescent
Sep 28
New
Oct 5
First Quarter
Oct 13
Full
Oct 21
Last Quarter

Hourly Weather History & Observations

Time (CDT) Temp. Dew Point Humidity Pressure Visibility Wind Dir Wind Speed Gust Speed Precip Events Conditions
12:56 AM 62.1 °F 53.1 °F 72% 29.51 in 10.0 mi WNW 10.4 mph - N/A   Overcast
1:56 AM 61.0 °F 51.1 °F 70% 29.51 in 10.0 mi WNW 10.4 mph - N/A   Clear
2:56 AM 57.9 °F 51.1 °F 78% 29.51 in 10.0 mi West 9.2 mph - N/A   Clear
3:56 AM 55.0 °F 51.1 °F 86% 29.54 in 10.0 mi West 8.1 mph - N/A   Clear
4:56 AM 54.0 °F 51.1 °F 90% 29.56 in 10.0 mi WSW 6.9 mph - N/A   Clear
5:56 AM 51.1 °F 48.9 °F 92% 29.58 in 10.0 mi West 8.1 mph - N/A   Clear
6:56 AM 51.1 °F 48.9 °F 92% 29.59 in 10.0 mi West 8.1 mph - N/A   Clear
7:56 AM 55.0 °F 51.1 °F 86% 29.60 in 10.0 mi West 6.9 mph - N/A   Clear
8:56 AM 59.0 °F 52.0 °F 78% 29.61 in 10.0 mi West 8.1 mph - N/A   Clear
9:56 AM 63.0 °F 52.0 °F 67% 29.62 in 10.0 mi West 5.8 mph - N/A   Clear
10:56 AM 66.9 °F 48.9 °F 52% 29.62 in 10.0 mi West 8.1 mph - N/A   Clear
11:56 AM 70.0 °F 46.0 °F 42% 29.61 in 10.0 mi NW 11.5 mph - N/A   Clear
12:56 PM 72.0 °F 44.1 °F 37% 29.60 in 10.0 mi WNW 13.8 mph 24.2 mph N/A   Clear
1:56 PM 72.0 °F 45.0 °F 38% 29.58 in 10.0 mi WNW 11.5 mph - N/A   Clear
2:56 PM 72.0 °F 45.0 °F 38% 29.56 in 10.0 mi West 9.2 mph - N/A   Clear
3:56 PM 73.0 °F 45.0 °F 37% 29.54 in 10.0 mi West 13.8 mph - N/A   Clear
4:56 PM 71.1 °F 45.0 °F 39% 29.53 in 10.0 mi West 10.4 mph - N/A   Clear
5:56 PM 69.1 °F 45.0 °F 42% 29.52 in 10.0 mi WSW 5.8 mph - N/A   Clear
6:56 PM 64.0 °F 48.0 °F 56% 29.52 in 10.0 mi Calm Calm - N/A   Clear
7:56 PM 62.1 °F 48.9 °F 62% 29.52 in 10.0 mi SSE 4.6 mph - N/A   Clear
8:56 PM 62.1 °F 50.0 °F 65% 29.51 in 10.0 mi SSE 5.8 mph - N/A   Clear
9:56 PM 60.1 °F 51.1 °F 72% 29.52 in 10.0 mi Variable 3.5 mph - N/A   Clear
10:56 PM 59.0 °F 50.0 °F 72% 29.50 in 10.0 mi SSE 5.8 mph - N/A   Clear
11:56 PM 53.1 °F 52.0 °F 96% 29.50 in 10.0 mi East 4.6 mph - N/A   Partly Cloudy